Date String (YYYY-MM-DD hh:mm:ss) UTC,Instrument flags,Ambient pressure (hPa),Sample flow (lpm),Bypass flow (lpm),Sample temperature (°C),Ambient temperature (°C),ASC tube jacket temperature (°C),LED temperature (°C),Box temperature (°C),Sample RH (%),Span deviation,Mass concentration (μg/m³),Mass concentration (μg/m³),Mass concentration (μg/m³)
DateTimeUTC,F1_M11,P_M11,Q1_M11,Q2_M11,T1_M11,T2_M11,T3_M11,T4_M11,T5_M11,U1_M11,ZSPAN_M11,X0_M11,X2_M11,X1_M11
2022-11-08 21:00:00,,0820.9,5.00,0.00,28.2,27.3,00.0,36.8,30.2,12.5,0000.3,0010.78,0004.19,0003.50
2022-11-08 21:01:00,,0820.9,4.99,0.00,28.3,27.3,00.0,36.9,30.2,12.5,0000.4,0010.69,0004.18,0003.49
2022-11-08 21:02:00,,0820.9,5.00,0.00,28.3,27.3,00.0,36.9,30.2,12.6,0000.5,0010.51,0004.11,0003.49
2022-11-08 21:03:00,,0820.9,5.00,0.00,28.3,27.4,00.0,36.9,30.2,12.4,0000.8,0011.00,0004.07,0003.49
2022-11-08 21:04:00,,0820.9,4.99,0.00,28.3,27.4,00.0,36.9,30.2,12.5,0001.1,0010.93,0004.06,0003.49
2022-11-08 21:05:00,,0820.9,5.00,0.00,28.4,27.4,00.0,37.0,30.3,12.4,0001.2,0011.04,0004.06,0003.49
2022-11-08 21:06:00,,0820.8,5.01,0.00,28.4,27.4,00.0,37.0,30.3,12.4,0001.7,0011.22,0004.07,0003.48
2022-11-08 21:07:00,,0820.9,4.99,0.00,28.4,27.5,00.0,37.0,30.3,12.2,0001.6,0011.39,0004.09,0003.48
2022-11-08 21:08:00,,0820.8,5.01,0.00,28.4,27.5,00.0,37.0,30.3,12.2,0001.8,0011.88,0004.04,0003.46
2022-11-08 21:09:00,,0820.8,4.99,0.00,28.4,27.5,00.0,37.0,30.4,12.1,0002.0,0011.51,0004.01,0003.45
2022-11-08 21:10:00,,0820.8,4.99,0.00,28.5,27.5,00.0,37.1,30.4,12.1,0001.4,0010.95,0004.03,0003.44
2022-11-08 21:11:00,,0820.9,5.00,0.00,28.5,27.5,00.0,37.1,30.4,12.0,0001.8,0010.42,0004.01,0003.43
2022-11-08 21:12:00,,0820.9,5.01,0.00,28.5,27.5,00.0,37.1,30.4,11.9,0002.4,0010.08,0003.99,0003.42
2022-11-08 21:13:00,,0820.9,4.99,0.00,28.5,27.6,00.0,37.1,30.4,12.0,0002.5,0009.98,0003.97,0003.41
2022-11-08 21:14:00,,0820.8,4.99,0.00,28.5,27.6,00.0,37.1,30.5,12.3,0002.5,0009.86,0003.99,0003.41
2022-11-08 21:15:00,,0820.8,5.02,0.00,28.6,27.6,00.0,37.2,30.5,12.1,0002.2,0010.33,0004.01,0003.42
2022-11-08 21:16:00,,0820.8,4.98,0.00,28.6,27.6,00.0,37.2,30.5,12.0,0000.8,0010.44,0004.01,0003.42
2022-11-08 21:17:00,,0820.8,5.01,0.00,28.6,27.7,00.0,37.2,30.5,12.2,-000.4,0010.76,0004.02,0003.44
2022-11-08 21:18:00,,0820.8,4.99,0.00,28.6,27.7,00.0,37.2,30.6,12.0,0000.2,0010.71,0004.00,0003.45
2022-11-08 21:19:00,,0820.8,5.00,0.00,28.7,27.8,00.0,37.3,30.6,11.9,-000.0,0010.00,0004.01,0003.47
2022-11-08 21:20:00,,0820.8,5.01,0.00,28.7,27.8,00.0,37.3,30.6,12.1,-000.2,0010.38,0004.05,0003.49
2022-11-08 21:21:00,,0820.9,5.00,0.00,28.7,27.8,00.0,37.3,30.7,12.2,0000.8,0010.70,0004.05,0003.51
2022-11-08 21:22:00,,0820.8,4.99,0.00,28.8,27.8,00.0,37.3,30.7,12.1,0000.5,0011.22,0004.09,0003.55
2022-11-08 21:23:00,,0820.8,5.01,0.00,28.8,27.9,00.0,37.4,30.7,12.1,-001.1,0012.02,0004.17,0003.60
2022-11-08 21:24:00,,0820.8,5.00,0.00,28.8,27.9,00.0,37.4,30.7,12.1,-001.0,0012.41,0004.21,0003.63
2022-11-08 21:25:00,,0820.8,4.99,0.00,28.8,27.9,00.0,37.4,30.8,12.5,-000.6,0012.18,0004.28,0003.67
2022-11-08 21:26:00,,0820.7,5.02,0.00,28.9,28.0,00.0,37.4,30.8,12.4,-000.7,0011.89,0004.33,0003.70
2022-11-08 21:27:00,,0820.7,4.98,0.00,28.9,28.0,00.0,37.5,30.8,12.2,-000.6,0012.48,0004.36,0003.72
2022-11-08 21:28:00,,0820.6,5.01,0.00,28.9,28.0,00.0,37.5,30.8,12.3,-000.7,0012.35,0004.39,0003.75
2022-11-08 21:29:00,,0820.7,5.01,0.00,28.9,28.0,00.0,37.5,30.9,12.5,-000.6,0012.41,0004.44,0003.77
2022-11-08 21:30:00,,0820.7,4.99,0.00,28.9,28.0,00.0,37.5,30.9,12.5,-001.0,0012.61,0004.48,0003.78
2022-11-08 21:31:00,,0820.7,5.02,0.00,29.0,28.0,00.0,37.5,30.9,12.4,-001.6,0013.15,0004.53,0003.82
2022-11-08 21:32:00,,0820.7,5.00,0.00,29.0,28.0,00.0,37.6,30.9,12.4,-001.9,0012.85,0004.57,0003.86
2022-11-08 21:33:00,,0820.7,4.99,0.00,29.0,28.1,00.0,37.6,30.9,12.5,-002.4,0012.59,0004.61,0003.87
2022-11-08 21:34:00,,0820.7,5.00,0.00,29.0,28.1,00.0,37.6,30.9,12.5,-001.8,0011.98,0004.59,0003.90
2022-11-08 21:35:00,,0820.7,5.01,0.00,29.1,28.1,00.0,37.6,31.0,12.3,-001.7,0011.89,0004.66,0003.94
2022-11-08 21:36:00,,0820.7,4.98,0.00,29.1,28.2,00.0,37.7,31.0,12.1,-001.9,0012.17,0004.67,0003.96
2022-11-08 21:37:00,,0820.7,5.00,0.00,29.1,28.2,00.0,37.7,31.0,12.1,-001.5,0012.14,0004.68,0003.98
2022-11-08 21:38:00,,0820.7,5.00,0.00,29.1,28.2,00.0,37.7,31.1,12.1,-001.2,0012.40,0004.74,0004.01
2022-11-08 21:39:00,,0820.7,5.00,0.00,29.2,28.3,00.0,37.7,31.1,11.7,-001.4,0012.57,0004.76,0004.01
2022-11-08 21:40:00,,0820.7,5.00,0.00,29.2,28.3,00.0,37.8,31.1,11.5,-001.7,0013.14,0004.76,0004.01
2022-11-08 21:41:00,,0820.7,5.01,0.00,29.2,28.3,00.0,37.8,31.1,11.1,-001.4,0013.04,0004.75,0004.00
2022-11-08 21:42:00,,0820.7,4.98,0.00,29.2,28.3,00.0,37.8,31.2,11.2,-000.8,0012.26,0004.68,0003.95
2022-11-08 21:43:00,,0820.7,5.00,0.00,29.3,28.3,00.0,37.8,31.2,11.3,-000.9,0012.22,0004.64,0003.90
2022-11-08 21:44:00,,0820.7,5.01,0.00,29.3,28.4,00.0,37.9,31.2,11.2,-000.1,0012.16,0004.64,0003.86
2022-11-08 21:45:00,,0820.7,4.99,0.00,29.3,28.4,00.0,37.9,31.2,11.3,0000.0,0012.03,0004.58,0003.82
2022-11-08 21:46:00,,0820.7,5.01,0.00,29.3,28.4,00.0,37.9,31.2,11.2,0000.2,0011.60,0004.48,0003.76
2022-11-08 21:47:00,,0820.7,5.02,0.00,29.3,28.4,00.0,37.9,31.3,10.8,0000.6,0011.10,0004.43,0003.71
2022-11-08 21:48:00,,0820.8,4.98,0.00,29.4,28.4,00.0,37.9,31.3,10.5,0000.6,0011.11,0004.40,0003.66
2022-11-08 21:49:00,,0820.7,5.00,0.00,29.4,28.5,00.0,38.0,31.3,10.7,0000.7,0010.22,0004.32,0003.61
2022-11-08 21:50:00,,0820.7,5.00,0.00,29.4,28.5,00.0,38.0,31.3,10.7,0001.7,0009.46,0004.27,0003.57
2022-11-08 21:51:00,,0820.7,4.99,0.00,29.4,28.5,00.0,38.0,31.4,10.8,0002.1,0008.72,0004.19,0003.54
2022-11-08 21:52:00,,0820.7,5.01,0.00,29.5,28.5,00.0,38.0,31.4,10.9,0002.7,0008.60,0004.15,0003.52
2022-11-08 21:53:00,,0820.7,5.00,0.00,29.5,28.5,00.0,38.1,31.4,11.1,0002.4,0008.68,0004.15,0003.51
2022-11-08 21:54:00,,0820.7,4.99,0.00,29.5,28.6,00.0,38.1,31.4,10.7,0002.6,0009.05,0004.12,0003.50
2022-11-08 21:55:00,,0820.7,5.02,0.00,29.5,28.6,00.0,38.1,31.4,10.8,0002.3,0009.10,0004.06,0003.49
2022-11-08 21:56:00,,0820.7,4.99,0.00,29.5,28.6,00.0,38.1,31.4,11.0,0002.1,0009.20,0004.10,0003.47
2022-11-08 21:57:00,,0820.8,4.99,0.00,29.6,28.6,00.0,38.2,31.5,11.1,0001.7,0009.21,0004.11,0003.45
2022-11-08 21:58:00,,0820.7,5.01,0.00,29.6,28.6,00.0,38.2,31.5,10.6,0001.5,0009.07,0004.08,0003.43
2022-11-08 21:59:00,,0820.7,4.99,0.00,29.6,28.7,00.0,38.2,31.5,10.4,0001.0,0008.70,0004.02,0003.41
